• In Hungary
  • List of Countries
  • For 7 days
  • Water Temperature
  • Satellite Maps
  • Weather Map
  • News
  • Weather Widgets
  • user-avatar
    Login

    Hourly Weather Gornostaevka

    Today, 23 September, Sunday

    Time Temperature Precipitation Wind Pressure Humidity
    00:00 +20°C° 0 mm 2 mps 755 mmHg 54%
    01:00 +19°C° 0 mm 2 mps 755 mmHg 55%
    02:00 +19°C° 0 mm 2 mps 755 mmHg 57%
    03:00 +19°C° 0 mm 3 mps 755 mmHg 59%
    04:00 +18°C° 0 mm 3 mps 755 mmHg 62%
    05:00 +18°C° 0 mm 3 mps 755 mmHg 64%
    06:00 +18°C° 0.1 mm 4 mps 755 mmHg 65%
    07:00 +18°C° 0.1 mm 4 mps 755 mmHg 66%
    08:00 +17°C° 0.1 mm 5 mps 756 mmHg 67%
    09:00 +17°C° 0.6 mm 5 mps 756 mmHg 70%
    10:00 +17°C° 0.6 mm 4 mps 756 mmHg 74%
    11:00 +15°C° 0.6 mm 4 mps 757 mmHg 77%
    12:00 +17°C° 0.1 mm 4 mps 757 mmHg 69%
    13:00 +19°C° 0.1 mm 4 mps 757 mmHg 61%
    14:00 +20°C° 0.1 mm 4 mps 757 mmHg 53%
    15:00 +20°C° 0 mm 4 mps 757 mmHg 50%
    16:00 +20°C° 0 mm 3 mps 757 mmHg 48%
    17:00 +19°C° 0 mm 3 mps 757 mmHg 45%
    18:00 +18°C° 0 mm 2 mps 758 mmHg 47%
    19:00 +17°C° 0 mm 2 mps 758 mmHg 50%
    20:00 +16°C° 0 mm 1 mps 758 mmHg 52%
    21:00 +15°C° 0 mm 1 mps 759 mmHg 53%
    22:00 +15°C° 0 mm 1 mps 759 mmHg 54%
    23:00 +15°C° 0 mm 1 mps 759 mmHg 55%

    Tomorrow, 24 September, Monday

    Time Temperature Precipitation Wind Pressure Humidity
    00:00 +14°C° 0 mm 1 mps 758 mmHg 56%
    01:00 +14°C° 0 mm 2 mps 758 mmHg 58%
    02:00 +13°C° 0 mm 3 mps 758 mmHg 59%
    03:00 +13°C° 0 mm 3 mps 757 mmHg 61%
    04:00 +12°C° 0 mm 3 mps 757 mmHg 63%
    05:00 +12°C° 0 mm 3 mps 757 mmHg 65%
    06:00 +14°C° 0 mm 5 mps 757 mmHg 61%
    07:00 +15°C° 0 mm 6 mps 756 mmHg 58%
    08:00 +17°C° 0 mm 7 mps 756 mmHg 54%
    09:00 +18°C° 0 mm 7 mps 755 mmHg 48%
    10:00 +21°C° 0 mm 8 mps 754 mmHg 43%
    11:00 +23°C° 0 mm 8 mps 754 mmHg 38%
    12:00 +24°C° 0 mm 8 mps 753 mmHg 40%
    13:00 +24°C° 0 mm 9 mps 752 mmHg 43%
    14:00 +26°C° 0 mm 9 mps 751 mmHg 46%
    15:00 +26°C° 0 mm 9 mps 751 mmHg 51%
    16:00 +24°C° 0 mm 8 mps 751 mmHg 57%
    17:00 +23°C° 0 mm 8 mps 750 mmHg 63%
    18:00 +21°C° 0.7 mm 8 mps 751 mmHg 66%
    19:00 +18°C° 0.7 mm 9 mps 751 mmHg 70%
    20:00 +16°C° 0.7 mm 9 mps 752 mmHg 74%
    21:00 +15°C° 0.6 mm 9 mps 753 mmHg 74%
    22:00 +13°C° 0.6 mm 8 mps 753 mmHg 74%
    23:00 +11°C° 0.6 mm 7 mps 754 mmHg 74%

    Day after tomorrow, 25 September, Tuesday

    Time Temperature Precipitation Wind Pressure Humidity
    00:00 +11°C° 0.8 mm 6 mps 754 mmHg 74%
    01:00 +12°C° 0.8 mm 5 mps 755 mmHg 73%
    02:00 +12°C° 0.8 mm 4 mps 755 mmHg 73%
    03:00 +10°C° 0 mm 5 mps 755 mmHg 74%
    04:00 +10°C° 0 mm 5 mps 756 mmHg 75%
    05:00 +9°C° 0 mm 5 mps 756 mmHg 76%
    06:00 +9°C° 0 mm 5 mps 756 mmHg 72%
    07:00 +10°C° 0 mm 6 mps 757 mmHg 67%
    08:00 +10°C° 0 mm 6 mps 757 mmHg 63%
    09:00 +11°C° 0 mm 6 mps 757 mmHg 58%
    10:00 +12°C° 0 mm 7 mps 757 mmHg 52%
    11:00 +14°C° 0 mm 7 mps 758 mmHg 47%
    12:00 +15°C° 0 mm 7 mps 758 mmHg 45%
    13:00 +15°C° 0 mm 7 mps 758 mmHg 43%
    14:00 +16°C° 0 mm 7 mps 758 mmHg 41%
    15:00 +15°C° 0.2 mm 7 mps 758 mmHg 45%
    16:00 +14°C° 0.2 mm 7 mps 758 mmHg 49%
    17:00 +12°C° 0.2 mm 7 mps 759 mmHg 53%
    18:00 +11°C° 0 mm 6 mps 759 mmHg 56%
    19:00 +10°C° 0 mm 5 mps 760 mmHg 59%
    20:00 +10°C° 0 mm 4 mps 761 mmHg 63%
    21:00 +10°C° 0 mm 4 mps 761 mmHg 61%
    22:00 +10°C° 0 mm 4 mps 762 mmHg 60%
    23:00 +8°C° 0 mm 4 mps 762 mmHg 59%

    26 September, Wednesday

    Time Temperature Precipitation Wind Pressure Humidity
    00:00 +8°C° 0 mm 4 mps 762 mmHg 60%
    01:00 +7°C° 0 mm 4 mps 763 mmHg 61%
    02:00 +7°C° 0 mm 4 mps 763 mmHg 62%
    03:00 +6°C° 0 mm 4 mps 763 mmHg 64%
    04:00 +6°C° 0 mm 4 mps 764 mmHg 67%
    05:00 +6°C° 0 mm 4 mps 764 mmHg 69%
    06:00 +6°C° 0 mm 4 mps 764 mmHg 66%
    07:00 +7°C° 0 mm 5 mps 765 mmHg 63%
    08:00 +8°C° 0 mm 5 mps 765 mmHg 60%
    09:00 +9°C° 0 mm 5 mps 765 mmHg 54%
    10:00 +10°C° 0 mm 5 mps 765 mmHg 48%
    11:00 +13°C° 0 mm 5 mps 766 mmHg 42%
    12:00 +13°C° 0 mm 5 mps 765 mmHg 41%
    13:00 +13°C° 0 mm 5 mps 765 mmHg 40%
    14:00 +13°C° 0 mm 5 mps 765 mmHg 38%
    15:00 +13°C° 0 mm 5 mps 765 mmHg 39%
    16:00 +12°C° 0 mm 5 mps 765 mmHg 40%
    17:00 +12°C° 0 mm 5 mps 766 mmHg 41%
    18:00 +11°C° 0 mm 4 mps 766 mmHg 44%
    19:00 +10°C° 0 mm 4 mps 766 mmHg 47%
    20:00 +10°C° 0 mm 3 mps 767 mmHg 49%
    21:00 +9°C° 0 mm 3 mps 767 mmHg 51%
    22:00 +8°C° 0 mm 3 mps 767 mmHg 53%
    23:00 +8°C° 0 mm 3 mps 767 mmHg 54%

    27 September, Thursday

    Time Temperature Precipitation Wind Pressure Humidity
    00:00 +7°C° 0 mm 2 mps 767 mmHg 55%
    01:00 +7°C° 0 mm 2 mps 767 mmHg 56%
    02:00 +6°C° 0 mm 2 mps 767 mmHg 57%
    03:00 +6°C° 0 mm 2 mps 767 mmHg 58%
    04:00 +6°C° 0 mm 2 mps 767 mmHg 59%
    05:00 +6°C° 0 mm 1 mps 766 mmHg 60%
    06:00 +8°C° 0 mm 1 mps 766 mmHg 55%
    07:00 +9°C° 0 mm 1 mps 766 mmHg 51%
    08:00 +10°C° 0 mm 1 mps 766 mmHg 47%
    09:00 +11°C° 0 mm 1 mps 766 mmHg 42%
    10:00 +13°C° 0 mm 2 mps 766 mmHg 37%
    11:00 +14°C° 0 mm 2 mps 765 mmHg 33%
    12:00 +14°C° 0 mm 3 mps 765 mmHg 31%
    13:00 +16°C° 0 mm 3 mps 764 mmHg 29%
    14:00 +17°C° 0 mm 3 mps 763 mmHg 27%
    15:00 +16°C° 0 mm 3 mps 763 mmHg 28%
    16:00 +16°C° 0 mm 3 mps 763 mmHg 30%
    17:00 +14°C° 0 mm 3 mps 762 mmHg 32%
    18:00 +13°C° 0 mm 3 mps 762 mmHg 34%
    19:00 +12°C° 0 mm 3 mps 762 mmHg 36%
    20:00 +11°C° 0 mm 3 mps 762 mmHg 38%
    21:00 +11°C° 0 mm 3 mps 762 mmHg 40%
    22:00 +11°C° 0 mm 3 mps 762 mmHg 41%
    23:00 +11°C° 0 mm 3 mps 762 mmHg 43%

    28 September, Friday

    Time Temperature Precipitation Wind Pressure Humidity
    00:00 +10°C° 0 mm 3 mps 761 mmHg 44%
    01:00 +10°C° 0 mm 3 mps 761 mmHg 46%
    02:00 +10°C° 0 mm 2 mps 761 mmHg 47%
    03:00 +10°C° 0 mm 2 mps 761 mmHg 51%
    04:00 +10°C° 0 mm 2 mps 761 mmHg 55%
    05:00 +9°C° 0 mm 2 mps 760 mmHg 59%
    06:00 +11°C° 0 mm 1 mps 760 mmHg 58%
    07:00 +13°C° 0 mm 1 mps 761 mmHg 57%
    08:00 +14°C° 0 mm 1 mps 761 mmHg 56%
    09:00 +15°C° 0 mm 1 mps 761 mmHg 54%
    10:00 +17°C° 0 mm 2 mps 760 mmHg 51%
    11:00 +19°C° 0 mm 2 mps 760 mmHg 49%
    12:00 +19°C° 0 mm 2 mps 760 mmHg 47%
    13:00 +20°C° 0 mm 3 mps 759 mmHg 44%
    14:00 +21°C° 0 mm 3 mps 759 mmHg 42%
    15:00 +21°C° 0 mm 2 mps 759 mmHg 44%
    16:00 +20°C° 0 mm 2 mps 758 mmHg 46%
    17:00 +21°C° 0 mm 1 mps 758 mmHg 48%
    18:00 +20°C° 0 mm 1 mps 758 mmHg 51%
    19:00 +19°C° 0 mm 1 mps 759 mmHg 54%
    20:00 +16°C° 0 mm 1 mps 759 mmHg 57%
    21:00 +16°C° 0 mm 1 mps 759 mmHg 58%
    22:00 +16°C° 0 mm 1 mps 759 mmHg 60%
    23:00 +15°C° 0 mm 1 mps 759 mmHg 62%
    Show more